Weather History for Camarillo, CA

Change the Weather History Date:

Sunday, June 22, 2014

  Actual Average Record
Temperature  
Mean Temperature 67 °F 65 °F  
Max Temperature 75 °F 73 °F 90 °F (1973)
Min Temperature 59 °F 57 °F 51 °F (2009)
Degree Days  
Heating Degree Days 0 1  
Month to date heating degree days 12 34  
Since 1 June heating degree days 12 34  
Since 1 July heating degree days 1315 1977  
Cooling Degree Days 2 1  
Month to date cooling degree days 13 10  
Year to date cooling degree days 161 41  
Since 1 June cooling degree days 13 10  
Growing Degree Days 18 (Base 50)    
Moisture  
Dew Point 57 °F    
Average Humidity 71    
Maximum Humidity 84    
Minimum Humidity 57    
Precipitation  
Precipitation 0.00 in 0.00 in 0.11 in (1949)
Month to date precipitation 0.00 0.05  
Year to date precipitation 4.19 10.98  
Since 1 July precipitation 5.01 15.22  
Sea Level Pressure  
Sea Level Pressure 29.92 in    
Wind  
Wind Speed 5 mph (WSW)    
Max Wind Speed 13 mph    
Max Gust Speed -    
Visibility 8 miles    
Events      
T = Trace of Precipitation, MM = Missing Value Source: NWS Daily Summary

Daily Weather History Graph

Daily Weather History Graph

Search for Another Location

Airport:

Trip Planner

Search our weather history database for the weather conditions in past years. The results will help you decide how hot, cold, wet, or windy it might be!

Date:

Astronomy

Jun. 22, 2014 Rise Set
Actual Time 5:45 AM PDT 8:11 PM PDT
Civil Twilight 5:15 AM PDT 8:40 PM PDT
Nautical Twilight 4:39 AM PDT 9:17 PM PDT
Astronomical Twilight 4:00 AM PDT 9:56 PM PDT
Moon 2:27 AM PDT (6/22) 4:05 PM PDT (6/22)
Length of Visible Light 15h 25m
Length of Day
14h 26m
Waning Crescent, 20% of the Moon is Illuminated
Jun 22
Waning Crescent
Jun 27
New
Jul 5
First Quarter
Jul 12
Full
Jul 18
Last Quarter

Hourly Weather History & Observations

Time (PDT) Temp. Dew Point Humidity Pressure Visibility Wind Dir Wind Speed Gust Speed Precip Events Conditions
12:55 AM 62.1 °F 55.9 °F 80% 29.92 in 7.0 mi North - - N/A   Clear
1:14 AM 60.8 °F 55.4 °F 82% 29.89 in 7.0 mi Calm Calm - N/A   Mostly Cloudy
1:55 AM 63.0 °F 57.9 °F 84% 29.91 in 7.0 mi West 3.5 mph - N/A   Overcast
2:55 AM 64.0 °F 57.9 °F 80% 29.90 in 8.0 mi North - - N/A   Overcast
3:55 AM 64.0 °F 57.9 °F 80% 29.90 in 8.0 mi Calm Calm - N/A   Overcast
4:55 AM 63.0 °F 57.9 °F 84% 29.90 in 7.0 mi ESE 3.5 mph - N/A   Overcast
5:55 AM 63.0 °F 57.9 °F 84% 29.92 in 7.0 mi NE 4.6 mph - N/A   Overcast
6:34 AM 62.6 °F 57.2 °F 82% 29.91 in 6.0 mi ENE 6.9 mph - N/A   Haze
6:55 AM 63.0 °F 57.9 °F 84% 29.94 in 6.0 mi NNE 6.9 mph - N/A   Haze
7:55 AM 66.0 °F 57.9 °F 75% 29.94 in 7.0 mi Calm Calm - N/A   Overcast
8:55 AM 68.0 °F 57.9 °F 70% 29.95 in 7.0 mi NNW 3.5 mph - N/A   Overcast
9:55 AM 69.1 °F 57.9 °F 68% 29.95 in 7.0 mi SW 5.8 mph - N/A   Mostly Cloudy
10:55 AM 72.0 °F 59.0 °F 64% 29.95 in 8.0 mi SSW 4.6 mph - N/A   Scattered Clouds
11:55 AM 75.0 °F 59.0 °F 57% 29.95 in 9.0 mi SW 6.9 mph - N/A   Clear
12:55 PM 73.9 °F 59.0 °F 59% 29.94 in 9.0 mi SW 9.2 mph - N/A   Clear
1:55 PM 73.9 °F 59.0 °F 59% 29.94 in 10.0 mi SW 11.5 mph - N/A   Clear
2:55 PM 73.9 °F 57.9 °F 57% 29.93 in 10.0 mi SW 11.5 mph - N/A   Clear
3:55 PM 73.0 °F 57.9 °F 59% 29.92 in 10.0 mi WSW 11.5 mph - N/A   Clear
4:55 PM 70.0 °F 57.9 °F 65% 29.91 in 9.0 mi West 12.7 mph - N/A   Clear
5:55 PM 68.0 °F 57.0 °F 68% 29.90 in 9.0 mi WSW 6.9 mph - N/A   Clear
6:55 PM 66.9 °F 55.9 °F 68% 29.90 in 9.0 mi WSW 5.8 mph - N/A   Clear
7:55 PM 64.9 °F 55.0 °F 70% 29.91 in 9.0 mi WSW 6.9 mph - N/A   Clear
8:55 PM 63.0 °F 55.0 °F 75% 29.91 in 10.0 mi West 3.5 mph - N/A   Clear
9:55 PM 63.0 °F 55.9 °F 78% 29.92 in 9.0 mi Calm Calm - N/A   Clear
10:55 PM 63.0 °F 55.9 °F 78% 29.93 in 9.0 mi Calm Calm - N/A   Clear
11:55 PM 62.1 °F 54.0 °F 75% 29.91 in 7.0 mi Calm Calm - N/A   Clear